map of MYW home
MYW - Airport
Location
City:  Mtwara, Mtwara, Tanzania
Name:Mtwara Airport
ICAO:HTMT
IATA:MYW

Details
Type:Airport (Aerodrome, Airfield)
Use:Public/Civil, International (customs port of entry)
Latitude:1020'21"S (-10.339057)
Longitude:4010'54"E (40.181781)
Datum:WGS 1984
Elevation:371 ft (113 m)
Variation:4.62W (WMM2015v2 magnetic declination)
-0.04 annual change
Runways:2
Longest:7410 × 98 ft (2259 × 30 m), paved

Time
Time Zone:UTC+3
Local Time:

Weather
METAR:HTMT 041300Z 01012KT 9999 FEW023 FEW024CB SCT080 31/24 Q1009 NOSIG
TAF:HTMT 041100Z 0412/0512 33010KT 9999 SCT022 FEW023CB BKN080
BECMG 0418/0421 00000KT SCT020 FEW021CB

Related Locations
Nearby:
Farthest:ITO: 11240 mi / 18089 km
Hilo [Hilo Intl], Hawaii, HI, US

Find:

   beyond  
but within

Other Information
Maps:
NOTAMs:
Links:
Sources:

  
  • flag of Tanzania
  

Sectional Chart

Flight Planning
at skyvector.com

Satellite Image

Google Maps Satellite view

 

Copyright © 2004-2019 Karl L. Swartz. All rights reserved.
The Great Circle Mapper name and logo are trademarks of the Great Circle Mapper.
All other trademarks mentioned herein belong to their respective owners.
Please see credits for attibutions and further copyright information.

  Follow gcmap on Facebook Follow gcmap on Twitter GCmap on LinkedIn

hCard Microformat

Geo Microformat